[[{"header":{"parameterUnit":"m.s-1","parameterCategory":1,"la1":30.2991,"la2":30.254,"lo1":-89.0895,"lo2":-89.0444,"dy":0.0017,"dx":0.0017,"nx":28,"ny":28,"refTime":"2024-10-18T21:00:00:Z","depth":0,"parameterNumber":2,"parameterNumberName":"U-component_of_WINDS"},"data":[0,0,0,0,0,0,0,0,0,0,0,0,0,0,0,0,0,0,0,0,0,0,0,0,0,0,0,0,0,0,0,0,0,0,0,0,0,0,0,0,0,0,0,0,0,0,0,0,0,0,0,0,0,0,0,0,0,0,-4.6208,-4.6208,0,-4.616,-4.6159,-4.6159,-4.5921,-4.5915,-4.591,-4.5904,-4.5861,-4.5865,-4.5869,0,0,0,0,0,0,0,0,0,0,0,0,0,-4.61,-4.6103,-4.6208,-4.6208,-4.6207,-4.616,-4.6159,-4.6159,-4.5922,-4.5915,-4.5908,-4.5902,-4.586,-4.5864,-4.5869,0,0,0,0,0,0,0,0,0,0,0,0,0,-4.6109,-4.6104,-4.6209,-4.6083,-4.6071,-4.616,-4.6159,-4.6159,-4.5923,-4.5915,-4.5906,-4.5898,-4.5858,-4.5864,-4.587,-4.6078,0,0,-4.5889,-4.5892,0,0,0,0,0,0,0,0,-4.6109,-4.6114,-4.6102,-4.6092,-4.6079,-4.6037,-4.6105,-4.6132,-4.5925,-4.598,-4.5904,-4.5894,-4.5927,-4.5927,-4.5937,-4.6076,-4.6074,-4.5889,-4.5893,-4.5896,-4.5898,0,0,0,0,0,0,0,-4.6109,-4.6114,-4.6189,-4.6102,-4.6088,-4.6031,-4.6023,-4.6109,-4.6002,-4.5974,-4.5957,-4.5954,-4.5919,-4.5931,-4.5934,-4.6073,-4.5889,-4.5895,-4.5898,-4.5901,-4.6378,-4.6387,0,0,0,0,0,0,-4.6125,-4.6115,-4.6191,-4.6188,-4.6073,-4.604,-4.603,-4.606,-4.6,-4.5983,-4.5961,-4.5943,-4.5925,-4.5927,-4.5932,-4.6169,-4.5896,-4.5902,-4.5905,-4.6369,-4.638,-4.639,0,0,0,0,0,0,-4.6124,-4.6134,-4.6193,-4.6147,-4.615,-4.605,-4.6085,-4.6063,-4.6075,-4.599,-4.597,-4.5993,-4.5918,-4.5923,-4.6042,-4.6164,-4.5904,-4.591,-4.6359,-4.6373,-4.6385,-4.6648,0,0,0,0,0,0,-4.6122,-4.6135,-4.6212,-4.615,-4.6153,-4.6304,-4.6092,-4.6068,-4.6085,-4.6061,-4.6015,-4.5999,-4.5912,-4.6034,-4.6048,-4.6168,-4.5915,-4.6347,-4.6365,-4.6381,-4.6628,-4.6669,-4.6704,0,0,0,0,0,-4.6119,-4.629,-4.6217,-4.6228,-4.6247,-4.6311,-4.6313,-4.6208,-4.6096,-4.6173,-4.6118,-4.6001,-4.6149,-4.6049,-4.6062,-4.6186,-4.6339,-4.636,-4.6379,-4.6611,-4.6661,-4.6703,0,0,0,0,0,0,-4.6371,-4.6279,-4.6198,-4.6354,-4.6342,-4.6271,-4.6365,-4.6264,-4.6285,-4.6262,-4.6132,-4.6123,-4.6262,-4.6236,-4.6126,-4.6383,-4.6224,-4.6248,-4.6395,-4.6442,-4.6479,-4.6483,-4.592,0,0,0,0,0,-4.6445,-4.6503,-4.642,-4.6566,-4.6564,-4.6466,-4.649,-4.641,-4.6393,-4.6387,-4.6341,-4.6331,-4.6375,-4.6407,-4.6442,-4.6623,-4.6609,-4.6715,-4.6753,-4.6784,-4.6807,-4.6899,-4.6945,-4.6456,-4.6456,-4.6456,0,0,-4.6598,-4.6555,-4.66,-4.6615,-4.6596,-4.6661,-4.6464,-4.654,-4.6587,-4.6399,-4.6508,-4.6475,-4.6455,-4.6605,-4.6669,-4.6588,-4.6938,-4.681,-4.6836,-4.6841,-4.6924,-4.6971,-4.7012,-4.647,-4.6467,-4.6465,0,0,-4.691,-4.6883,-4.7,-4.6985,-4.6958,-4.6891,-4.692,-4.6864,-4.6834,-4.694,-4.6801,-4.6855,-4.6934,-4.6925,-4.6931,-4.7238,-4.713,-4.7253,-4.7451,-4.7543,-4.7582,-4.7615,-4.7724,-4.7765,-4.7276,-4.7276,-4.7277,0,-4.7104,-4.7193,-4.7074,-4.7159,-4.717,-4.7001,-4.7119,-4.7111,-4.7099,-4.7111,-4.7019,-4.7112,-4.7087,-4.7233,-4.7307,-4.7318,-4.7347,-4.7258,-4.7585,-4.7618,-4.7647,-4.775,-4.7791,-4.7291,-4.729,-4.7288,-4.7287,0,-4.7433,-4.7498,-4.7596,-4.7585,-4.7607,-4.7709,-4.7606,-4.7643,-4.7561,-4.7505,-4.7616,-4.7579,-4.7604,-4.7633,-4.7554,-4.7768,-4.7717,-4.7608,-4.7445,-4.7711,-4.7805,-4.7843,-4.7313,-4.7308,-4.7303,-4.7299,0,0,-4.7904,-4.7824,-4.7862,-4.7854,-4.7811,-4.7859,-4.7954,-4.7975,-4.8009,-4.8007,-4.8083,-4.8152,-4.805,-4.8057,-4.7976,-4.8056,-4.8301,-4.7936,-4.7933,-4.8005,-4.8533,-4.8616,-4.8663,-4.8229,-4.8236,-4.8242,-4.8535,0,-4.8201,-4.8355,-4.825,-4.8422,-4.8479,-4.8319,-4.84,-4.8384,-4.8334,-4.8377,-4.8322,-4.8373,-4.8234,-4.8237,-4.831,-4.8256,-4.8405,-4.8233,-4.83,-4.8304,-4.8309,-4.8712,-4.88,-4.9078,-4.8571,-4.8577,-4.8582,0,-4.8568,-4.8578,-4.8756,-4.8699,-4.8719,-4.8795,-4.8805,-4.8848,-4.8826,-4.8784,-4.8792,-4.8689,-4.8779,-4.8619,-4.8741,-4.8626,-4.8647,-4.8625,-4.8633,-4.8635,-4.8459,-4.8725,-4.9165,-4.9207,-4.8638,-4.8634,-4.863,0,-4.8893,-4.8951,-4.9063,-4.9062,-4.9,-4.9056,-4.9033,-4.9002,-4.9022,-4.9032,-4.9043,-4.9066,-4.9078,-4.9098,-4.9005,-4.8897,-4.914,-4.8972,-4.9108,-4.9111,-4.9166,-4.9164,-4.9615,-4.9181,-4.9181,-4.918,-4.9179,0,-4.9235,-4.935,-4.9208,-4.9278,-4.9401,-4.928,-4.9407,-4.9367,-4.9341,-4.9401,-4.9264,-4.9324,-4.9197,-4.9245,-4.9173,-4.9285,-4.9292,-4.9261,-4.924,-4.9273,-4.9277,-4.9285,-4.9263,-4.9191,-4.9188,-4.9186,-4.9184,0,-4.9619,-4.9528,-4.964,-4.9571,-4.9556,-4.965,-4.9591,-4.9654,-4.9594,-4.9672,-4.9683,-4.959,-4.9639,-4.9547,-4.9585,-4.9536,-4.9693,-4.9643,-4.97,-4.9685,-4.9826,-4.9814,-5.0297,-5.0354,-4.9886,-4.989,-4.9894,0,-4.9843,-4.9927,-4.9865,-4.9894,-4.9878,-4.9927,-4.9945,-4.9829,-4.9854,-4.9835,-4.99,-4.9936,-4.9959,-5.0044,-4.9981,-5.0009,-4.9958,-5.0126,-4.9962,-4.9991,-4.996,-4.9956,-4.9963,-5.016,-5.0166,-5.017,-5.0174,0,-5.025,-5.0201,-5.023,-5.0245,-5.027,-5.0277,-5.0274,-5.0306,-5.0183,-5.0219,-5.0265,-5.0283,-5.0319,-5.0357,-5.037,-5.0347,-5.0242,-5.0226,-5.0259,-5.0293,-5.0322,-5.0307,-4.9792,-5.0215,-5.0211,-5.0208,-5.0206,-5.0204,-5.056,-5.0626,-5.0592,-5.063,-5.0615,-5.0615,-5.0669,-5.0615,-5.0651,-5.067,-5.06,-5.0663,-5.0638,-5.0643,-5.0633,-5.0681,-5.0606,-5.0654,-5.0666,-5.068,-5.0702,-5.0315,-5.0683,-5.0682,-5.068,-5.0679,-5.0678,0,-5.0959,-5.0928,-5.0964,-5.0963,-5.0993,-5.0887,-5.0879,-5.0912,-5.0967,-5.0952,-5.0976,-5.103,-5.1066,-5.1006,-5.1032,-5.1082,-5.1034,-5.1093,-5.1088,-5.1085,-5.0767,-5.0736,-5.1132,-5.1131,-5.1131,-5.1131,-5.1131,-5.1131,-5.117,-5.1275,-5.1222,-5.132,-5.1289,-5.1346,-5.135,-5.135,-5.1337,-5.1402,-5.143,-5.1389,-5.1357,-5.1379,-5.1408,-5.139,-5.1406,-5.1482,-5.1447,-5.1151,-5.1107,-5.1065,-5.1034,-5.1487,-5.1487,-5.1759,-5.1762,-5.1764]},{"header":{"parameterUnit":"m.s-1","parameterCategory":1,"la1":30.2991,"la2":30.254,"lo1":-89.0895,"lo2":-89.0444,"dy":0.0017,"dx":0.0017,"nx":28,"ny":28,"refTime":"2024-10-18T21:00:00:Z","depth":0,"parameterNumber":3,"parameterNumberName":"V-component_of_WINDS"},"data":[0,0,0,0,0,0,0,0,0,0,0,0,0,0,0,0,0,0,0,0,0,0,0,0,0,0,0,0,0,0,0,0,0,0,0,0,0,0,0,0,0,0,0,0,0,0,0,0,0,0,0,0,0,0,0,0,0,0,-2.0803,-2.0804,0,-2.0914,-2.0916,-2.0917,-2.0975,-2.0976,-2.0976,-2.0976,-2.1086,-2.1088,-2.1091,0,0,0,0,0,0,0,0,0,0,0,0,0,-2.0635,-2.0638,-2.0803,-2.0804,-2.0806,-2.0914,-2.0916,-2.0917,-2.0975,-2.0976,-2.0976,-2.0976,-2.1085,-2.1088,-2.1091,0,0,0,0,0,0,0,0,0,0,0,0,0,-2.0723,-2.0639,-2.0803,-2.0848,-2.0853,-2.0914,-2.0916,-2.0918,-2.0975,-2.0976,-2.0976,-2.0976,-2.1084,-2.1088,-2.1092,-2.1115,0,0,-2.1105,-2.1107,0,0,0,0,0,0,0,0,-2.0718,-2.073,-2.084,-2.0845,-2.0851,-2.0931,-2.0897,-2.0984,-2.0975,-2.0929,-2.0976,-2.0976,-2.1034,-2.1042,-2.1063,-2.112,-2.1125,-2.1105,-2.1108,-2.111,-2.1111,0,0,0,0,0,0,0,-2.0712,-2.0725,-2.0847,-2.0841,-2.0848,-2.0861,-2.0874,-2.0914,-2.0979,-2.0933,-2.0937,-2.095,-2.1037,-2.1058,-2.1066,-2.1126,-2.1105,-2.1109,-2.1111,-2.1113,-2.1206,-2.1206,0,0,0,0,0,0,-2.07,-2.072,-2.0843,-2.085,-2.0784,-2.0864,-2.0878,-2.0905,-2.0979,-2.099,-2.095,-2.0952,-2.1051,-2.1061,-2.107,-2.1101,-2.111,-2.1114,-2.1116,-2.1206,-2.1206,-2.1206,0,0,0,0,0,0,-2.0696,-2.071,-2.0839,-2.0786,-2.0804,-2.0867,-2.0897,-2.0907,-2.0929,-2.0992,-2.1003,-2.096,-2.1052,-2.1064,-2.1103,-2.1105,-2.1115,-2.1119,-2.1206,-2.1206,-2.1206,-2.1163,0,0,0,0,0,0,-2.0691,-2.0708,-2.0719,-2.0786,-2.0806,-2.0872,-2.0897,-2.0909,-2.0937,-2.0941,-2.1004,-2.1015,-2.1053,-2.1096,-2.1107,-2.1111,-2.1123,-2.1207,-2.1206,-2.1206,-2.1165,-2.1162,-2.1159,0,0,0,0,0,-2.0684,-2.0702,-2.0719,-2.0734,-2.0821,-2.0872,-2.0884,-2.0928,-2.0937,-2.0947,-2.0987,-2.1013,-2.1103,-2.11,-2.1113,-2.1118,-2.1207,-2.1206,-2.1206,-2.1166,-2.1162,-2.1159,0,0,0,0,0,0,-2.0633,-2.0712,-2.0732,-2.0772,-2.0815,-2.0882,-2.0897,-2.0923,-2.0963,-2.0965,-2.1017,-2.1031,-2.1065,-2.1095,-2.109,-2.1143,-2.1157,-2.116,-2.1122,-2.1119,-2.1117,-2.1108,-2.1126,0,0,0,0,0,-2.0626,-2.0662,-2.0729,-2.0758,-2.0778,-2.0833,-2.0857,-2.0888,-2.0934,-2.0952,-2.0995,-2.1037,-2.1075,-2.1099,-2.1137,-2.1169,-2.1183,-2.1179,-2.1176,-2.1173,-2.1175,-2.1192,-2.1191,-2.1206,-2.1206,-2.1206,0,0,-2.0613,-2.066,-2.068,-2.0748,-2.0785,-2.082,-2.0849,-2.0884,-2.091,-2.0957,-2.0997,-2.1029,-2.108,-2.1115,-2.1133,-2.1142,-2.1173,-2.1173,-2.117,-2.1174,-2.1192,-2.119,-2.1189,-2.1206,-2.1206,-2.1206,0,0,-2.0606,-2.0646,-2.0674,-2.0711,-2.0766,-2.0803,-2.0809,-2.0872,-2.0895,-2.0937,-2.0972,-2.1002,-2.1067,-2.1101,-2.1127,-2.1131,-2.1155,-2.1141,-2.1127,-2.1143,-2.1142,-2.1141,-2.1142,-2.1141,-2.1143,-2.1142,-2.1142,0,-2.0582,-2.0638,-2.0685,-2.0719,-2.0747,-2.0792,-2.0819,-2.0851,-2.0916,-2.0933,-2.0942,-2.1024,-2.1061,-2.1104,-2.1105,-2.1125,-2.1132,-2.1135,-2.1139,-2.1138,-2.1138,-2.1139,-2.1139,-2.114,-2.1141,-2.1141,-2.1141,0,-2.0605,-2.0642,-2.0657,-2.072,-2.075,-2.078,-2.083,-2.0854,-2.0881,-2.0916,-2.0956,-2.1002,-2.105,-2.1062,-2.1088,-2.1108,-2.1112,-2.1129,-2.1144,-2.1134,-2.1136,-2.1136,-2.1137,-2.1138,-2.1139,-2.1139,0,0,-2.0571,-2.0657,-2.0662,-2.069,-2.0754,-2.0783,-2.0814,-2.0862,-2.0881,-2.0923,-2.0949,-2.1002,-2.1018,-2.1047,-2.1077,-2.1092,-2.109,-2.1107,-2.1109,-2.1101,-2.1114,-2.11,-2.11,-2.1107,-2.1107,-2.1107,-2.1109,0,-2.0573,-2.0633,-2.0675,-2.0717,-2.0751,-2.0793,-2.082,-2.086,-2.0893,-2.0925,-2.096,-2.0997,-2.1015,-2.1033,-2.1049,-2.1087,-2.1093,-2.1087,-2.113,-2.1131,-2.1117,-2.1101,-2.1088,-2.1087,-2.111,-2.111,-2.111,0,-2.0584,-2.0625,-2.0671,-2.073,-2.0746,-2.0769,-2.0815,-2.0846,-2.0892,-2.0914,-2.0946,-2.0977,-2.1009,-2.1021,-2.1066,-2.1061,-2.108,-2.1101,-2.1102,-2.1108,-2.112,-2.1106,-2.1088,-2.1088,-2.1112,-2.1112,-2.1112,0,-2.0553,-2.0621,-2.0657,-2.0679,-2.0748,-2.0764,-2.0793,-2.0839,-2.0864,-2.0904,-2.0921,-2.0963,-2.0986,-2.1017,-2.1058,-2.1063,-2.1098,-2.1113,-2.1116,-2.1115,-2.1122,-2.1121,-2.1107,-2.1135,-2.1135,-2.1135,-2.1135,0,-2.0552,-2.0578,-2.0644,-2.0666,-2.0695,-2.0743,-2.077,-2.0803,-2.0843,-2.0871,-2.0909,-2.0934,-2.0986,-2.1017,-2.1048,-2.108,-2.109,-2.1108,-2.1116,-2.1104,-2.1102,-2.1118,-2.1119,-2.1135,-2.1135,-2.1135,-2.1135,0,-2.0523,-2.0569,-2.061,-2.0672,-2.0688,-2.0707,-2.0759,-2.0781,-2.0814,-2.0849,-2.0859,-2.0912,-2.095,-2.0993,-2.1045,-2.1067,-2.1095,-2.1107,-2.108,-2.1084,-2.1085,-2.1084,-2.108,-2.1082,-2.1108,-2.1108,-2.1108,0,-2.0519,-2.0541,-2.0604,-2.0626,-2.0654,-2.0688,-2.0714,-2.0761,-2.0786,-2.0838,-2.0853,-2.0894,-2.0929,-2.0987,-2.1029,-2.1068,-2.1081,-2.1077,-2.1088,-2.1075,-2.1081,-2.1079,-2.108,-2.1075,-2.1074,-2.1074,-2.1073,0,-2.0507,-2.0528,-2.0565,-2.0608,-2.0638,-2.0675,-2.0712,-2.0727,-2.0781,-2.0807,-2.0846,-2.0873,-2.0926,-2.0965,-2.1009,-2.1038,-2.1064,-2.107,-2.1072,-2.1061,-2.1044,-2.1052,-2.1072,-2.107,-2.107,-2.107,-2.1071,-2.1071,-2.0491,-2.0511,-2.0558,-2.0597,-2.063,-2.0664,-2.0687,-2.0724,-2.0758,-2.0805,-2.083,-2.0868,-2.0911,-2.0973,-2.1001,-2.103,-2.1039,-2.1043,-2.1044,-2.1044,-2.104,-2.1039,-2.1038,-2.1038,-2.1039,-2.1039,-2.1039,0,-2.048,-2.0512,-2.0547,-2.0599,-2.0629,-2.0651,-2.0693,-2.0716,-2.075,-2.0789,-2.0822,-2.0866,-2.0904,-2.0948,-2.0988,-2.1003,-2.1016,-2.1012,-2.1011,-2.1017,-2.1031,-2.1024,-2.1001,-2.1001,-2.1001,-2.1001,-2.1001,-2.1001,-2.0478,-2.0513,-2.0539,-2.0589,-2.0621,-2.066,-2.0682,-2.0712,-2.0743,-2.0791,-2.0823,-2.0851,-2.0892,-2.0935,-2.097,-2.0981,-2.0994,-2.0986,-2.1002,-2.1013,-2.1017,-2.102,-2.1014,-2.0989,-2.0989,-2.0986,-2.0986,-2.0986]}]]